Omaha, IA

1:41 AM CDT on May 27, 2017 (GMT -0500)
Eppley Airfield

Weather History for KOMA - May, 2014

Change the Weather History Date:

Monday, May 5, 2014

  Actual Average Record
Temperature  
Mean Temperature 60 °F 59 °F  
Max Temperature 75 °F 70 °F 95 °F (1909)
Min Temperature 44 °F 47 °F 29 °F (1944)
Degree Days  
Heating Degree Days 5 7  
Month to date heating degree days 43 38  
Since 1 July heating degree days 6430 6040  
Cooling Degree Days 0 1  
Month to date cooling degree days 0 5  
Year to date cooling degree days 15 21  
Growing Degree Days 10 (Base 50)    
Moisture  
Dew Point 40 °F    
Average Humidity 54    
Maximum Humidity 76    
Minimum Humidity 31    
Precipitation  
Precipitation 0.00 in 0.14 in 3.39 in (2007)
Month to date precipitation 0.01 0.66  
Year to date precipitation 3.70 7.18  
Snow  
Snow 0.00 in 0.00 in - ()
Month to date snowfall 0.0 0.1  
Since 1 July snowfall 17.8 26.5  
Snow Depth 0.00 in    
Sea Level Pressure  
Sea Level Pressure 29.81 in    
Wind  
Wind Speed 11 mph (NE)    
Max Wind Speed 23 mph    
Max Gust Speed 28 mph    
Visibility 10 miles    
Events      
T = Trace of Precipitation, MM = Missing Value Source: NWS Daily Summary

Daily Weather History Graph

Daily Weather History Graph

Search for Another Location

Airport or City:

Trip Planner

Search our weather history database for the weather conditions in past years. The results will help you decide how hot, cold, wet, or windy it might be!

Date:

Astronomy

May. 05, 2014 Rise Set
Actual Time 6:15 AM CDT 8:25 PM CDT
Civil Twilight 5:45 AM CDT 8:55 PM CDT
Nautical Twilight 5:08 AM CDT 9:33 PM CDT
Astronomical Twilight 4:27 AM CDT 10:14 PM CDT
Moon 11:36 AM CDT (5/5) 1:09 AM CDT (5/5)
Length of Visible Light 15h 10m
Length of Day
14h 09m
Waxing Crescent, 37% of the Moon is Illuminated
May 5
Waxing Crescent
May 6
First Quarter
May 14
Full
May 21
Last Quarter
May 28
New

Hourly Weather History & Observations

Time (CDT) Temp. Windchill Dew Point Humidity Pressure Visibility Wind Dir Wind Speed Gust Speed Precip Events Conditions
12:52 AM 55.4 °F - 41.0 °F 58% 29.82 in 10.0 mi NNE 9.2 mph - N/A   Scattered Clouds
1:52 AM 52.0 °F - 41.0 °F 66% 29.82 in 10.0 mi North 9.2 mph - N/A   Scattered Clouds
2:52 AM 51.1 °F - 41.0 °F 68% 29.81 in 10.0 mi North 9.2 mph - N/A   Scattered Clouds
3:52 AM 48.9 °F - 39.9 °F 71% 29.80 in 10.0 mi North 6.9 mph - N/A   Scattered Clouds
4:52 AM 48.0 °F - 39.0 °F 71% 29.81 in 10.0 mi North 6.9 mph - N/A   Scattered Clouds
5:52 AM 46.0 °F 43.9 °F 37.9 °F 73% 29.81 in 10.0 mi NNW 4.6 mph - N/A   Partly Cloudy
6:52 AM 46.9 °F - 39.0 °F 74% 29.84 in 10.0 mi North 8.1 mph - N/A   Mostly Cloudy
7:52 AM 51.1 °F - 39.0 °F 63% 29.86 in 10.0 mi North 10.4 mph - N/A   Mostly Cloudy
8:52 AM 53.1 °F - 37.9 °F 57% 29.83 in 10.0 mi NE 10.4 mph - N/A   Mostly Cloudy
9:52 AM 57.9 °F - 39.0 °F 49% 29.83 in 10.0 mi NE 13.8 mph - N/A   Mostly Cloudy
10:52 AM 62.1 °F - 39.0 °F 43% 29.83 in 10.0 mi NNE 16.1 mph - N/A   Mostly Cloudy
11:52 AM 66.0 °F - 39.0 °F 37% 29.82 in 10.0 mi NNE 17.3 mph 27.6 mph N/A   Mostly Cloudy
12:52 PM 68.0 °F - 37.4 °F 33% 29.83 in 10.0 mi NE 16.1 mph 24.2 mph N/A   Mostly Cloudy
1:52 PM 71.1 °F - 39.9 °F 32% 29.82 in 10.0 mi NE 12.7 mph 21.9 mph N/A   Scattered Clouds
2:52 PM 73.0 °F - 41.0 °F 31% 29.82 in 10.0 mi ENE 11.5 mph - N/A   Scattered Clouds
3:52 PM 73.9 °F - 41.0 °F 30% 29.80 in 10.0 mi ENE 12.7 mph - N/A   Scattered Clouds
4:52 PM 73.9 °F - 41.0 °F 30% 29.77 in 10.0 mi ENE 12.7 mph - N/A   Mostly Cloudy
5:52 PM 73.0 °F - 41.0 °F 31% 29.77 in 10.0 mi ENE 13.8 mph - N/A   Mostly Cloudy
6:52 PM 71.1 °F - 42.1 °F 35% 29.77 in 10.0 mi East 10.4 mph - N/A   Mostly Cloudy
7:52 PM 69.1 °F - 42.1 °F 38% 29.77 in 10.0 mi East 10.4 mph - N/A   Overcast
8:52 PM 66.9 °F - 42.1 °F 40% 29.78 in 10.0 mi East 10.4 mph - N/A   Overcast
9:52 PM 64.0 °F - 43.0 °F 46% 29.79 in 10.0 mi East 10.4 mph - N/A   Overcast
10:52 PM 62.6 °F - 42.8 °F 48% 29.80 in 10.0 mi East 12.7 mph - N/A   Overcast
11:52 PM 61.0 °F - 43.0 °F 52% 29.78 in 10.0 mi East 11.5 mph - N/A   Overcast